Regional Weather Roundup
Issued by NWS

Home | Current Version | Previous Version | Text Only | Print | Product List | Glossary On
Versions: 1 2 3 4 5 6 7 8 9 10 11 12 13 14 15 16 17 18 19 20 21 22 23 24 25 26 27 28 29 30 31 32 33 34 35 36 37 38 39 40 41 42 43 44 45 46 47 48 49 50
000
ASUS43 KLMK 280810
RWRKY
KENTUCKY REGIONAL WEATHER ROUNDUP
NATIONAL WEATHER SERVICE LOUISVILLE KY
400 AM EDT THU MAY 28 2015

NOTE "FAIR" INDICATES FEW OR NO CLOUDS BELOW 12,000 FEET
WITH NO SIGNIFICANT WEATHER AND/OR OBSTRUCTIONS TO VISIBILITY.

KYZ001>023-026-027-061>063-070>075-280900-
WESTERN AND SOUTH CENTRAL KENTUCKY

CITY           SKY/WX    TMP DP  RH WIND       PRES   REMARKS
PADUCAH        PTCLDY    67  65  93 CALM      30.14S
HENDERSON      CLOUDY    64  63  94 CALM      30.13F
OWENSBORO      MOCLDY    65  65 100 S3        30.16S
HOPKINSVILLE   CLOUDY    66  65  97 CALM      30.15S
BOWLING GREEN  MOCLDY    67  64  90 CALM      30.16S
GLASGOW        CLOUDY    64  64 100 N3        30.17R
$$

KYZ024-025-028>034-038-045-046-053-280900-
NORTH CENTRAL KENTUCKY

CITY           SKY/WX    TMP DP  RH WIND       PRES   REMARKS
LOUISVILLE/SDF CLOUDY    67  63  87 W5        30.16S
LOUISVILLE/LOU MOCLDY    65  62  90 CALM      30.16S
FORT KNOX      FOG       62  62  99 CALM      30.15S VSB 1/4
$$

KYZ035>037-039>044-047>052-055>060-089>105-280900-
NORTHEAST KENTUCKY

CITY           SKY/WX    TMP DP  RH WIND       PRES   REMARKS
LEXINGTON      CLOUDY    62  60  93 CALM      30.18S
COVINGTON      MOCLDY    62  60  93 CALM      30.17R
FRANKFORT      CLOUDY    61  59  93 CALM      30.16S
$$

KYZ054-064>069-076>088-106>120-280900-
SOUTHEAST KENTUCKY

CITY           SKY/WX    TMP DP  RH WIND       PRES   REMARKS
JACKSON        MOCLDY    65  61  87 CALM      30.19F
LONDON         MOCLDY    62  57  83 CALM      30.19F
SOMERSET       FOG       59  59 100 CALM      30.20S VSB 1/4
MIDDLESBORO    CLOUDY    64  64 100 CALM      30.20F FOG
MONTICELLO     PTSUNNY   62  62 100 CALM      30.21F
$$




USA.gov is the U.S. government's official web portal to all federal, state and local government web resources and services.